IRIDIUM 33 DEB

Satellite information

Favourite Embed

Satellite Type and Status

DEBRISIN ORBIT

Key statistics

Satellite IRIDIUM 33 DEB at a glance.

Uptime

10317

Days in orbit

Revolutions

≈ 14.8

Per day

Orbit

LEO

Low Earth Orbit

Inclination

86.4

Latest

Satellite identification and parameters

Extended collection of information and parameters for IRIDIUM 33 DEB.

Object identification

Identified? True

Debris? True

Object name: IRIDIUM 33 DEB

International designator: 1997-051BD

Object number (NORAD): 33884

Object ID (CCSDS): 33884

Country: UNITED STATES OF AMERICA (US)

Current information (Y/N): Y

RCS size: SMALL

Orbital parameters

Period: 97.468 minutes

Inclination: 86.3699 deg

SMA: 7015.654 km

Apoapsis: 644.355 km

Periapsis: 630.683 km

RAAN: 10.1308 deg

Eccentricy: 0.00097443

Argument of periapsis: 326.4674 deg

Mean anomaly: 90.7894 deg

Mean motion: 14.77408265 rev/day

Mean motion (dot): 0.00014881 rev/day2

B* drag term: 0.0020846826 1/REarth

Two-line elements (TLE)

Creation date: Dec. 12, 2025, 10:14 a.m.

Reference frame: TEME

Reference center: EARTH

Epoch: Dec. 12, 2025, 1:07 a.m. UTC

TLE line 0: 0 IRIDIUM 33 DEB

TLE line 1: 1 33884U 97051BD 25346.04665316 .00014881 00000-0 20847-2 0 9994

TLE line 2: 2 33884 86.3699 10.1308 0009744 326.4674 90.7894 14.77408265888373

Live tracking on map

Real-time ground track for satellite IRIDIUM 33 DEB.

In-orbit conjunctions

A list of the most updated potential collisions computed for object IRIDIUM 33 DEB.

Target Orbit TCA Probability of collision Miss distance Type
CZ-6A DEB LEO 2025-02-24 21:18:19 0.0002263425 728.0 (m) DEBRIS
CZ-6A DEB LEO 2025-01-05 15:11:39 0.0002019387 777.0 (m) DEBRIS
CZ-2C R/B SSO 2024-11-13 00:57:33 0.001162559 166.0 (m) ROCKET BODY

Associated space launch

Iridium provides global mobile telecommunications services using a constellation of 66 low earth orbit satellites in a 86.4° inclined orbit. Although 77 satellites were originally envisioned for the system and spawned the name based on the 77th element in the periodic table, the system has been scaled back. Motorola's Satellite Communications Group designed and manufactured the Iridium satellites with Lockheed Martin providing the LM-700A spacecraft buses.

IRIDIUM 33 DEB was lifted into orbit during the mission ‘Proton-K/17S40 | Iridium 27 to 33’, on board a Proton-K/17S40 space rocket.

The launch took place on Sept. 14, 1997, 1:36 a.m. from 81/23 (81L).

For more information about the launch, click the button.

Launch to space Proton-K/17S40 | Iridium 27 to 33
Proton-K/17S40 | Iridium 27 to 33

Agency: N/A

Status: Launch Successful

Launch date: Sept. 14, 1997, 1:36 a.m. UTC

Rocket: Proton-K/17S40

Launch pad: 81/23 (81L)

Location: Baikonur Cosmodrome, Republic of Kazakhstan

...

Latest news about this satellite

There are no fresh news available about this satellite. Check back as we update our databases every day.


Newsletter sign-up

Weekly statistics, charts and insights to help you stay on top of the space industry.